Location: Kielce
(50.8833°N, 20.6167°E)
Time: 22:11:25
(UTC+02:00)

SR - Pass Details

Date: 20 April 2021
Orbit: 573 x 882 km, 66.7° (Epoch: 09 May)

Event Time Altitude Azimuth Distance (km) Brightness Sun altitude
Rises 13:46:20 0° 315° (NW) 3,489 ? 48.3°
Reaches altitude 10° 13:49:29 10° 331° (NNW) 2,549 ? 48.1°
Maximum altitude 13:53:58 22° 20° (NNE) 1,839 ? 47.7°
Drops below altitude 10° 13:58:22 10° 69° (ENE) 2,485 ? 47.4°
Sets 14:01:23 0° 85° (E) 3,378 ? 47.1°
